GFSFLT2_925_temp_114.txt.gz
Temp
22 22 22 23 23 23 22 22 22 21 20 20 20 20 20 20 20 19 19 19 19 19 19 19 19 19 18 18 18 19 18 18
23 22 22 22 22 22 22 22 22 22 20 19 20 20 20 20 20 19 19 19 19 19 19 19 19 19 19 19 18 18 18 18
22 22 21 21 21 21 21 21 22 21 20 19 19 19 19 20 20 19 19 19 19 19 19 19 19 19 19 19 18 18 18 18
22 21 21 21 20 20 20 21 21 21 20 19 19 19 19 19 19 19 19 19 19 19 19 19 19 18 18 18 18 18 19 18
22 21 21 21 20 20 20 20 20 20 20 19 19 19 18 19 19 19 19 19 18 18 18 18 18 18 18 18 18 18 18 18
23 22 21 20 20 20 20 20 20 20 20 19 19 18 18 18 18 18 18 18 18 18 18 18 18 18 18 18 18 18 18 17
23 23 22 21 20 20 20 20 20 20 20 20 19 18 18 18 18 18 18 18 18 18 18 18 18 17 17 17 17 17 17 17
23 22 22 22 21 21 21 20 20 20 20 20 19 19 18 18 18 18 18 18 18 18 18 17 17 17 17 17 17 17 17 16
22 23 22 21 21 21 21 21 20 20 19 19 19 18 18 18 18 18 18 17 17 17 17 17 16 16 16 16 16 16 15 15
22 21 22 22 21 21 21 21 20 20 19 19 19 18 18 18 18 18 17 17 17 17 16 16 16 16 16 15 16 15 14 15
22 22 22 21 21 21 21 21 20 20 19 19 19 19 18 18 17 17 17 17 16 16 16 15 14 14 14 15 15 14 14 14
24 22 22 21 20 20 19 20 20 20 19 19 19 18 18 18 17 17 17 17 16 16 15 15 14 14 14 14 13 13 13 14
25 22 21 20 20 19 18 19 20 20 20 20 19 18 18 18 17 17 16 17 17 16 15 15 14 14 14 14 14 13 13 14
24 23 21 20 20 20 19 19 18 18 19 19 19 18 18 18 17 17 16 16 16 16 15 14 14 14 14 14 13 13 13 14
20 21 21 20 20 19 19 18 17 17 18 19 19 18 18 17 17 17 16 16 15 15 15 15 14 14 14 14 13 13 13 13
17 19 19 20 20 19 18 18 18 18 17 17 18 18 18 17 16 16 16 16 16 16 15 16 14 13 13 13 15 14 14 13
14 16 18 19 19 19 19 19 19 19 17 17 17 18 18 17 17 16 16 16 16 17 16 15 14 13 13 13 13 14 14 14
10 12 14 16 17 19 19 19 18 17 17 16 16 17 17 17 17 16 16 16 16 15 15 13 13 13 13 13 13 13 13 14
8 8 10 13 15 17 18 19 18 18 16 16 15 15 16 16 16 16 16 15 15 14 13 12 12 13 13 12 13 13 13 13
7 7 8 9 12 16 17 18 17 17 17 16 16 16 16 16 16 16 16 15 15 14 12 12 12 12 13 13 13 13 13 13

GFSFLT2_925_temp_117.txt.gz
Temp
22 22 22 22 23 22 22 23 22 22 21 21 21 20 20 20 20 19 19 19 19 19 19 19 19 18 18 18 18 18 18 18
22 21 21 22 22 22 22 22 22 22 21 21 21 20 20 19 19 19 19 19 19 19 19 19 18 19 18 18 18 19 18 18
21 21 21 22 22 21 22 22 22 21 21 20 20 20 20 19 19 19 19 19 19 19 19 19 18 19 19 18 18 18 18 18
20 20 21 21 21 21 20 20 20 20 20 20 20 20 19 19 19 19 19 19 19 19 19 19 19 19 19 18 18 18 18 19
20 21 21 21 21 20 20 20 20 19 19 20 20 19 19 19 19 18 18 18 19 19 19 18 18 18 18 18 18 18 18 18
21 21 21 21 21 20 20 20 20 19 19 19 19 19 19 19 18 18 18 18 18 18 18 18 18 18 18 18 18 18 18 18
21 21 22 22 21 20 21 20 20 20 19 19 19 19 19 19 18 18 18 18 18 18 18 18 18 18 17 17 17 17 17 18
21 22 21 21 21 21 21 21 21 20 20 19 19 19 19 19 18 18 18 18 18 18 18 18 18 17 17 17 17 17 17 17
22 22 22 22 22 21 20 20 20 20 20 19 19 19 19 18 18 18 18 18 18 18 17 17 17 17 17 17 16 16 16 16
21 20 20 21 21 21 21 20 20 20 20 20 19 19 18 18 18 18 18 17 17 17 17 16 16 16 16 16 16 16 16 16
22 21 21 21 20 19 19 19 19 20 20 20 19 19 18 18 18 18 18 17 17 17 16 16 15 15 15 15 15 15 15 15
23 22 22 21 19 18 18 18 18 19 20 20 19 19 18 18 17 17 17 17 16 16 15 15 14 14 14 13 14 14 14 14
22 21 21 19 18 18 17 17 19 19 19 19 19 19 18 18 17 17 17 16 16 17 15 15 14 14 14 14 13 14 14 14
21 21 21 20 19 19 18 18 17 18 18 19 19 19 18 18 18 17 16 16 16 17 16 14 14 14 14 14 13 13 13 13
16 19 20 19 19 18 19 17 17 16 17 18 19 18 18 18 18 17 17 16 17 17 15 15 14 14 14 15 13 13 13 13
13 16 19 19 19 19 17 18 17 17 18 18 19 19 18 18 18 17 17 16 16 16 16 15 14 14 14 14 15 14 13 13
10 13 15 17 19 19 18 18 18 17 17 17 17 19 18 18 17 17 17 16 15 15 15 14 14 14 14 13 13 13 13 13
8 10 12 14 15 16 17 17 18 17 16 16 15 16 17 17 17 17 16 16 16 15 15 15 14 14 14 14 14 13 13 13
6 8 9 10 12 14 15 17 18 19 20 16 15 15 15 17 16 16 16 16 16 15 15 14 15 14 13 13 13 13 13 13
5 6 7 8 9 9 12 15 16 18 20 17 17 16 16 16 15 15 15 16 16 15 15 14 14 13 13 13 12 13 13 12

GFSFLT2_925_temp_123.txt.gz
Temp
22 22 21 22 22 22 22 22 22 22 21 21 21 21 20 20 20 19 19 19 19 19 20 19 19 19 18 18 18 18 17 18
21 20 21 21 21 21 21 21 21 21 21 21 21 20 20 20 20 19 19 19 19 19 19 19 19 19 18 18 18 18 17 17
20 21 20 20 21 21 21 21 21 21 21 21 20 19 19 19 19 19 19 19 19 19 19 19 19 18 18 18 18 17 17 17
18 19 19 19 19 20 19 19 19 20 20 20 18 18 18 18 18 19 19 19 19 19 19 19 18 18 18 17 17 18 18 17
17 18 18 18 18 18 18 18 18 19 19 19 19 19 19 18 18 18 18 18 18 18 18 18 18 18 18 17 17 18 17 17
18 17 17 17 17 17 17 17 18 18 19 19 19 19 19 18 18 18 17 17 17 17 17 18 18 18 18 18 18 17 17 17
17 16 17 17 17 17 17 17 17 18 18 19 19 19 19 18 18 18 17 17 17 18 18 18 18 18 18 18 18 18 18 18
18 17 16 17 17 16 17 17 17 18 18 19 19 18 18 19 18 18 18 17 17 17 18 18 17 18 18 18 17 17 17 17
20 19 17 16 16 16 16 16 17 17 17 17 18 17 17 17 18 18 18 17 17 17 17 18 16 17 17 17 17 16 16 16
20 19 18 17 17 16 16 16 16 16 16 17 17 18 17 17 17 17 18 18 17 17 17 17 16 15 15 15 16 17 16 15
20 19 19 19 17 17 16 16 16 16 17 17 17 17 17 17 17 17 18 17 17 16 16 16 16 15 15 15 15 16 15 15
21 19 20 18 17 17 16 16 16 16 18 19 18 17 17 17 16 17 18 17 16 16 15 15 15 14 14 14 14 14 14 14
20 19 18 18 17 17 17 16 16 16 16 17 18 16 17 17 17 18 18 16 16 16 15 15 14 15 14 14 14 14 14 15
16 17 18 17 18 18 18 18 17 16 16 16 16 17 19 18 18 18 18 16 16 15 15 15 14 15 14 14 15 14 14 14
11 14 17 18 18 18 17 17 17 16 16 16 16 16 17 18 17 16 18 17 16 16 16 15 15 14 15 17 15 17 15 14
9 11 14 16 17 18 17 18 18 17 17 16 16 16 16 17 18 16 16 16 16 16 15 15 15 15 14 14 15 17 18 17
8 10 10 13 15 17 17 18 18 19 17 16 16 17 16 16 16 16 16 16 16 15 15 15 16 16 15 14 14 14 15 16
7 8 8 9 12 14 16 17 18 17 17 17 16 16 16 16 16 16 16 16 15 15 16 15 15 16 15 15 15 14 14 15
5 6 6 7 8 10 11 13 14 15 17 16 16 16 16 16 16 16 17 20 17 15 15 15 15 15 15 15 14 15 16 15
4 5 5 5 6 7 9 10 10 11 13 15 16 16 16 16 15 15 16 17 16 15 15 15 15 15 15 14 14 14 14 15

GFSFLT2_925_temp_126.txt.gz
Temp
21 20 21 22 22 22 22 22 22 22 22 22 21 21 21 20 20 20 19 19 20 19 20 19 19 19 19 19 19 19 20 19
21 21 20 20 20 21 22 22 22 22 21 21 21 21 20 20 20 19 19 19 20 20 19 19 19 19 19 19 18 18 20 21
21 21 21 21 20 20 21 21 21 21 21 20 20 19 19 19 19 19 19 19 19 19 19 19 19 18 18 18 18 21 21 21
22 21 21 21 22 21 19 19 19 19 19 19 19 20 20 20 20 19 19 19 19 19 18 18 18 19 18 18 20 21 20 21
22 21 21 21 22 21 20 21 20 20 20 20 20 20 20 20 20 19 19 18 19 18 17 18 19 19 20 20 21 20 21 21
23 22 21 21 22 21 20 20 19 19 20 20 20 20 20 20 20 20 20 20 20 20 20 20 18 18 19 20 20 20 21 21
23 22 21 21 21 21 21 21 19 18 18 18 18 20 20 20 20 20 20 20 20 20 20 19 19 19 19 19 19 20 20 20
23 22 20 19 20 21 21 20 21 18 18 18 18 20 20 20 20 19 20 20 20 20 20 19 20 19 19 19 19 20 19 20
25 22 20 19 19 20 20 20 20 19 18 18 18 18 19 18 18 19 18 19 19 19 19 18 19 19 19 19 19 18 19 19
26 23 21 20 20 20 21 21 19 20 18 19 18 18 18 17 17 18 19 18 18 17 17 17 19 19 19 19 19 19 19 19
26 25 21 21 20 20 20 20 18 19 19 20 18 18 17 17 17 17 18 17 17 17 17 17 18 19 19 19 18 19 18 19
24 25 22 21 21 20 20 20 18 18 17 18 18 17 17 17 17 17 17 17 16 17 16 16 17 18 18 19 18 18 18 18
22 24 23 21 21 21 21 21 20 20 20 19 18 16 17 17 17 16 17 17 17 16 16 15 16 17 17 16 15 16 16 16
16 21 24 22 22 22 22 22 22 21 20 20 19 19 17 16 16 16 17 17 16 16 16 15 16 15 16 16 18 18 15 15
13 17 22 22 21 22 22 22 22 21 20 20 20 19 19 16 18 18 17 17 17 16 15 15 15 15 16 19 19 20 21 18
11 15 17 17 19 21 22 22 21 21 21 21 20 18 19 19 18 19 19 16 18 16 16 16 16 15 15 18 20 21 21 21
8 11 13 14 16 18 18 21 22 22 20 19 18 17 17 19 19 18 18 16 16 16 15 16 17 17 18 18 17 18 18 20
7 8 8 10 12 14 17 17 20 20 19 19 18 16 16 17 18 17 16 16 16 16 16 16 16 18 19 19 18 18 17 17
5 6 6 7 9 9 11 12 13 14 15 17 17 16 16 16 16 16 16 16 16 17 16 17 16 17 17 18 18 18 18 17
4 4 5 6 6 7 8 9 10 11 12 12 15 15 16 16 16 16 16 16 16 16 16 16 16 17 17 17 18 18 18 18

GFSFLT2_925_temp_129.txt.gz
Temp
23 20 20 22 22 23 23 23 22 22 22 21 21 21 21 21 20 20 20 19 19 19 20 19 19 19 19 19 19 20 20 21
23 21 20 20 20 22 22 22 22 22 21 21 21 21 21 20 20 20 19 19 19 19 19 19 19 19 19 19 19 20 20 21
23 22 22 21 21 20 21 21 21 21 21 20 20 20 19 19 19 19 19 19 19 19 19 19 19 18 18 18 19 21 21 21
24 22 23 23 23 22 20 20 20 20 20 19 20 21 21 21 20 19 20 19 19 19 19 19 19 19 18 18 19 22 22 21
25 24 24 24 24 24 22 22 21 21 21 21 20 21 21 21 21 19 19 18 18 18 18 18 19 21 21 20 21 22 23 21
26 25 24 24 25 24 24 23 22 22 22 21 21 21 21 21 21 20 20 20 21 20 20 20 21 21 21 21 22 22 22 21
28 26 25 24 23 25 24 23 24 23 23 22 21 22 22 21 21 21 20 21 21 21 22 21 21 21 21 21 21 21 22 22
27 26 24 24 23 23 24 23 24 21 21 22 21 22 23 22 21 21 21 21 20 20 21 21 20 21 21 21 21 21 21 21
26 26 24 23 23 23 23 24 23 22 21 20 19 21 22 22 22 21 22 21 20 20 20 21 21 21 20 20 21 21 21 21
25 26 25 23 22 22 23 23 23 23 22 21 19 19 22 21 22 22 20 21 20 20 20 20 20 20 20 20 20 20 20 20
25 26 26 24 21 21 22 23 23 23 23 22 19 18 20 20 19 20 20 20 20 20 20 20 21 21 20 20 20 20 20 20
21 21 22 25 23 21 22 23 23 22 23 22 22 19 18 20 19 18 19 21 19 18 18 18 20 21 21 20 19 19 19 19
17 18 18 21 23 21 22 23 23 21 22 22 22 21 18 19 19 18 18 18 18 17 17 17 18 19 19 19 20 18 18 19
16 16 17 19 24 23 22 23 23 22 21 21 21 21 19 18 18 19 17 17 17 17 17 17 18 18 19 18 19 21 19 18
11 13 16 18 19 23 23 24 24 23 23 22 21 20 19 18 17 20 18 17 18 17 16 17 17 16 18 20 21 21 23 21
7 9 12 15 14 15 23 23 25 24 24 23 23 21 21 19 17 18 18 17 19 18 17 17 17 17 16 18 19 21 22 23
5 7 9 11 11 12 18 21 25 24 24 23 22 22 21 21 18 19 19 20 19 20 17 16 17 18 17 18 18 19 20 21
4 5 7 9 10 10 14 19 20 20 20 21 20 19 19 19 20 20 19 20 19 18 18 16 16 17 18 18 19 19 19 20
4 5 5 6 8 8 9 12 15 15 14 13 18 18 17 17 18 19 18 19 18 18 17 16 16 17 17 18 18 19 20 20
3 4 4 5 7 7 7 9 10 11 13 14 13 14 16 17 17 17 17 17 17 17 17 16 16 16 17 18 18 19 19 20

GFSFLT2_925_temp_132.txt.gz
Temp
23 22 22 22 22 22 23 23 23 23 22 22 22 21 21 21 20 20 20 19 19 19 19 19 19 19 20 20 20 20 20 20
24 23 21 21 21 22 22 22 22 22 22 22 22 21 21 20 20 20 19 19 19 19 19 19 19 19 19 20 20 20 21 20
24 23 21 20 20 21 21 21 22 21 21 21 21 20 20 20 20 20 19 19 19 19 19 19 19 19 19 20 20 21 20 20
24 23 22 21 21 21 21 21 20 20 20 20 20 20 20 19 20 19 19 19 19 19 19 19 19 19 19 20 20 20 21 21
26 24 24 22 23 22 22 20 20 20 20 19 20 20 20 21 20 20 19 19 19 18 18 19 19 19 20 20 21 20 21 20
28 25 24 23 23 24 22 21 20 20 20 20 20 20 21 21 20 20 19 19 19 19 19 19 19 20 20 21 21 21 20 20
26 26 24 24 23 24 24 22 22 21 21 20 20 21 21 21 21 20 20 19 20 20 20 20 20 21 21 21 21 21 21 20
24 25 26 24 23 24 24 24 24 22 22 21 21 21 21 21 21 21 20 20 20 20 21 20 21 21 21 21 21 21 21 20
24 24 25 25 24 23 24 23 24 23 23 22 21 21 22 22 21 20 20 20 21 20 21 21 21 21 21 20 21 21 21 21
22 22 24 24 24 24 23 23 23 23 22 23 21 21 22 22 21 21 20 21 21 20 20 20 20 20 20 20 21 20 21 21
17 18 18 18 20 21 23 23 23 23 22 21 21 21 21 22 22 21 21 21 20 20 20 20 20 20 21 21 20 20 20 20
12 13 17 16 17 19 21 22 22 23 23 22 21 20 21 20 21 21 20 21 20 20 20 20 20 20 20 20 20 20 20 20
10 11 12 13 14 17 18 21 21 22 22 23 22 20 20 20 20 20 21 20 20 20 19 19 19 20 20 20 19 20 19 19
7 8 9 10 11 14 15 17 20 21 22 23 22 20 19 19 19 19 20 19 19 20 19 18 19 19 19 19 17 18 19 19
5 6 6 7 9 11 12 13 16 21 21 22 22 22 20 19 19 19 19 18 18 19 18 18 17 18 19 18 17 16 19 19
3 4 5 6 8 10 11 11 14 20 21 21 22 22 21 18 18 19 19 18 17 18 17 17 17 18 17 18 19 18 18 18
2 3 5 6 6 8 9 11 13 17 21 22 22 21 20 19 18 18 19 18 18 18 17 17 17 18 17 17 18 18 18 17
1 2 4 5 6 7 9 11 13 17 19 20 22 21 20 19 18 18 18 18 18 18 18 17 17 18 17 18 17 17 17 18
-0 1 4 4 5 7 8 11 12 12 14 14 13 15 18 17 18 18 18 19 19 19 19 17 17 17 17 17 17 18 19 18
-1 -0 2 4 4 5 6 8 8 8 9 10 12 12 12 16 13 18 18 18 19 19 19 18 17 17 17 17 17 17 18 18

GFSFLT2_925_temp_138.txt.gz
Temp
24 24 24 23 23 22 22 21 21 22 22 22 22 22 21 21 21 20 20 20 19 19 19 19 20 20 19 19 20 19 19 19
21 22 23 23 23 23 22 21 21 21 21 21 21 21 21 21 21 20 20 20 19 19 19 19 19 20 19 19 19 19 19 19
22 21 21 22 22 22 22 21 21 21 21 20 20 20 20 20 20 20 20 20 20 19 19 19 19 19 20 19 19 19 20 20
19 19 18 20 20 21 22 22 21 21 21 20 20 20 20 20 20 20 20 19 19 19 19 19 19 20 20 19 19 19 19 19
15 16 17 17 18 20 21 21 22 21 21 20 20 19 19 19 19 19 19 19 19 19 19 19 19 20 20 20 19 19 19 20
12 14 16 16 16 17 16 19 20 21 21 20 20 19 19 19 19 19 19 19 19 19 19 19 19 20 20 20 20 20 19 19
9 10 12 13 14 15 16 16 17 20 21 21 20 20 19 19 19 19 19 19 19 19 19 19 19 19 19 19 19 20 20 20
8 8 8 10 11 13 14 16 16 17 19 20 21 21 20 19 19 19 19 19 19 19 19 19 20 19 19 19 19 20 20 20
6 7 6 7 8 10 13 13 14 16 16 18 19 20 20 20 19 19 19 19 19 19 19 19 19 19 19 19 20 20 20 20
5 5 6 6 5 7 9 12 13 15 16 17 18 19 19 20 20 19 19 19 19 19 19 18 19 19 19 20 20 20 20 20
3 3 3 5 4 5 6 9 10 12 14 16 16 19 20 20 19 19 19 19 19 19 19 19 19 19 20 20 20 21 20 20
2 2 2 2 3 3 5 6 9 10 12 14 17 16 19 20 19 19 19 19 19 19 19 19 19 20 20 20 20 21 21 20
1 1 0 1 1 2 4 5 6 7 10 11 15 16 16 18 19 19 20 18 18 19 19 18 18 20 19 19 19 20 20 20
0 -0 -0 0 1 2 3 5 5 6 7 10 12 15 15 17 17 19 20 19 18 18 18 18 18 19 18 18 17 18 18 19
-0 -0 -0 0 1 2 4 4 5 6 7 9 11 12 15 15 16 18 19 20 18 18 18 18 18 18 19 19 15 16 15 18
-1 -1 -1 -0 0 1 3 4 5 6 7 8 9 10 13 15 16 17 18 18 18 18 18 18 18 17 18 19 19 18 15 15
-1 -1 -1 -0 -0 0 2 4 5 6 7 9 9 11 11 16 17 17 17 17 19 18 18 18 18 18 18 17 17 17 17 14
-1 -1 -1 -1 -1 0 2 3 5 6 6 7 9 10 12 15 17 15 15 16 18 17 18 18 18 18 17 18 18 17 16 14
-2 -2 -1 -1 -1 -0 2 3 4 5 6 8 10 12 12 14 17 14 14 15 15 17 17 17 17 18 17 17 17 17 18 17
-2 -2 -1 -1 -1 -1 1 2 3 4 4 5 7 9 9 9 14 13 12 15 14 15 16 17 17 17 17 17 16 17 17 17

GFSFLT2_925_temp_144.txt.gz
Temp
17 18 19 18 18 18 18 18 19 19 20 20 20 20 20 20 20 20 20 20 20 20 20 20 20 20 19 19 19 19 19 19
16 17 17 18 17 17 18 18 18 18 19 20 20 20 20 20 20 20 20 20 20 20 20 20 20 20 19 19 19 19 19 19
15 15 16 17 17 17 17 17 18 18 18 19 19 19 20 20 19 20 20 20 20 20 19 19 19 19 19 19 19 19 19 19
11 13 14 15 16 17 17 18 18 17 17 18 18 19 19 19 19 19 19 19 19 19 19 19 19 19 19 18 19 19 19 19
8 10 10 12 14 15 16 17 17 18 17 16 17 18 18 18 18 18 19 19 18 18 19 19 19 19 19 18 19 18 19 19
6 7 7 10 10 12 14 15 15 16 17 17 17 16 16 17 18 18 18 18 18 18 18 19 19 19 19 19 19 19 19 19
4 5 5 7 8 9 10 12 13 14 15 16 16 16 16 17 16 17 18 18 18 18 18 18 19 19 18 18 18 19 19 19
3 5 5 5 5 6 7 8 10 11 13 14 14 14 15 16 16 17 17 18 18 18 18 18 18 19 19 18 18 18 19 19
3 3 4 5 6 6 4 4 5 8 10 11 12 12 12 14 16 16 17 17 17 17 17 17 18 18 18 18 18 18 19 19
1 1 2 2 2 3 5 4 3 4 6 8 9 10 11 11 13 16 16 17 17 16 16 16 16 17 18 18 18 18 18 19
1 1 1 1 1 1 1 2 3 3 3 4 6 7 9 10 10 12 16 15 17 17 16 16 15 16 17 18 18 18 18 18
-1 -0 -0 -0 -0 0 0 1 1 1 3 4 4 5 6 7 9 11 13 15 15 17 16 16 16 16 16 17 18 18 18 18
-1 -1 -1 -0 -0 0 0 1 1 1 2 4 4 4 5 6 8 10 11 12 15 15 16 16 16 16 16 15 17 17 18 18
-1 -1 -1 -1 -1 -0 0 0 1 1 2 3 5 5 5 6 7 9 11 12 13 15 15 17 16 16 16 16 16 16 16 18
-1 -1 -1 -1 -1 -1 -0 -0 1 1 2 3 4 5 6 6 7 7 9 10 12 14 17 16 16 16 16 17 16 17 17 16
-1 -2 -2 -1 -1 -1 -1 -0 0 1 2 3 4 5 5 6 6 7 7 9 11 13 15 16 14 16 15 16 18 19 16 15
-2 -2 -2 -2 -2 -2 -1 -1 -0 -0 1 2 4 5 5 7 7 7 8 8 10 13 14 15 14 16 16 16 15 16 17 14
-2 -2 -2 -2 -2 -2 -2 -1 -1 -1 0 2 2 3 4 5 7 8 9 9 10 12 15 15 16 15 16 16 18 17 15 14
-2 -3 -2 -2 -2 -2 -2 -2 -2 -1 -1 -0 1 2 3 4 4 6 9 11 11 12 14 14 14 14 15 16 17 19 18 18
-3 -3 -3 -3 -3 -3 -2 -2 -3 -2 -2 -2 -1 -1 0 2 3 5 9 11 12 13 14 14 15 15 15 15 14 16 16 17

GFSFLT2_925_temp_147.txt.gz
Temp
17 17 18 18 17 17 17 18 18 18 18 18 20 20 20 20 20 20 20 20 20 20 20 20 20 19 20 19 19 19 18 18
16 17 17 18 17 17 17 18 18 18 18 18 18 19 19 19 19 19 19 19 19 20 20 20 20 19 19 19 19 19 18 18
13 14 15 16 17 17 18 18 18 18 18 18 18 18 18 19 18 19 19 19 19 19 19 19 19 19 19 19 19 18 18 18
10 11 13 14 15 16 17 17 17 18 17 17 17 17 17 18 18 19 19 19 19 19 19 19 19 18 18 19 18 18 18 18
6 7 8 9 11 13 14 15 16 17 17 17 17 16 17 17 17 18 18 18 18 18 17 18 18 18 18 18 18 17 18 18
5 6 6 8 8 9 11 12 14 15 15 15 15 16 16 16 17 17 17 18 18 18 17 17 17 17 17 18 17 18 18 18
3 4 4 5 6 6 6 8 9 11 12 12 12 13 13 14 15 16 17 17 17 17 17 17 17 17 17 17 17 17 18 18
3 3 3 2 3 3 3 3 4 6 8 9 10 8 10 12 12 15 16 17 17 16 16 17 17 17 17 17 17 17 17 18
2 2 2 2 2 2 3 3 3 3 4 6 6 6 7 8 11 11 15 16 16 17 16 16 17 17 17 17 17 17 17 17
1 1 1 1 2 2 2 2 2 3 3 4 4 5 6 7 8 10 11 13 15 16 16 16 16 16 16 18 17 17 17 17
1 1 1 1 1 2 2 2 3 3 3 3 4 5 5 6 7 8 9 10 13 15 16 16 16 16 16 17 17 17 17 18
0 0 1 1 1 1 2 2 2 2 3 3 3 4 4 5 6 7 8 10 11 13 15 16 16 16 16 16 18 17 17 17
0 0 0 0 0 0 0 1 1 1 2 2 2 3 4 5 6 6 7 9 11 12 12 15 16 16 16 16 16 16 17 17
0 0 -0 -0 -0 -0 -0 -0 0 0 1 2 2 3 4 4 5 6 7 8 9 11 12 14 14 16 16 17 17 17 16 16
-0 -0 -1 -1 -1 -1 -1 -1 -0 0 1 1 2 3 3 4 5 5 6 7 8 9 10 12 15 15 16 16 18 19 20 17
-1 -1 -1 -1 -2 -2 -1 -1 -1 -0 -0 0 1 2 3 4 5 5 6 6 7 8 10 11 14 16 15 16 16 18 20 20
-1 -1 -1 -2 -2 -2 -1 -1 -1 -1 -1 -0 0 1 2 3 4 5 6 7 7 7 9 11 13 15 15 15 15 15 15 20
-1 -1 -1 -2 -2 -2 -2 -2 -2 -2 -2 -2 -1 -1 -0 1 1 3 4 5 6 8 9 10 12 14 15 15 16 16 16 16
-2 -2 -2 -2 -2 -2 -2 -3 -3 -3 -3 -3 -2 -2 -1 -0 1 2 3 5 7 8 9 10 11 14 15 16 16 16 17 17
-2 -3 -2 -2 -2 -3 -3 -3 -3 -3 -4 -3 -3 -3 -2 -1 -0 1 2 4 6 9 10 11 13 13 14 15 16 15 15 15

GFSFLT2_925_temp_150.txt.gz
Temp
13 14 17 18 18 18 18 18 18 17 18 18 18 19 19 20 20 20 20 20 20 19 20 19 19 20 20 19 19 20 20 22
12 12 14 15 14 17 18 18 18 18 18 18 18 19 19 19 19 19 20 19 19 19 19 19 19 19 19 19 19 19 19 22
11 11 12 13 12 14 16 18 19 19 18 17 17 18 18 19 19 19 19 20 19 19 19 19 19 19 19 19 19 20 21 22
10 9 9 10 11 12 13 14 13 13 14 16 15 15 16 17 18 18 18 18 19 19 19 19 18 20 19 19 19 21 22 22
9 9 8 8 9 10 11 11 12 12 12 12 14 14 15 16 18 19 18 19 18 18 18 18 20 20 22 21 21 21 22 22
9 8 8 7 8 9 9 10 10 11 11 11 11 13 14 15 15 17 18 18 18 18 18 20 21 21 21 21 21 21 22 22
8 8 7 7 7 8 8 8 9 8 10 11 10 11 12 14 14 14 16 18 18 17 18 18 19 21 21 21 21 21 21 22
7 7 7 7 7 7 7 8 8 8 9 9 8 9 10 11 13 14 14 15 17 18 17 17 17 18 20 20 20 21 21 21
7 7 6 6 7 6 7 8 7 8 8 8 8 8 9 10 11 12 14 15 14 16 17 17 17 17 18 21 21 20 21 21
6 6 6 5 6 6 7 7 6 7 8 7 7 7 8 8 10 11 12 13 15 14 14 17 18 17 17 18 20 21 21 21
6 5 5 5 5 6 6 6 6 7 7 7 7 6 6 7 7 7 9 11 12 14 13 14 17 17 16 17 18 20 21 21
6 5 5 4 5 5 6 6 5 5 6 6 5 5 4 4 5 6 7 10 12 13 14 15 14 16 17 17 18 19 21 21
5 5 4 4 4 4 4 4 4 4 4 4 4 4 4 4 5 5 6 8 11 12 13 15 15 14 16 16 16 18 19 20
5 4 4 3 3 2 2 2 3 3 3 4 4 3 3 4 5 5 5 6 7 9 12 14 15 15 15 17 18 16 17 18
4 4 3 3 1 2 2 3 3 3 3 2 2 2 2 3 3 4 5 6 6 7 10 12 12 16 15 15 16 17 16 17
4 3 3 2 1 1 1 1 2 1 1 1 1 2 1 1 1 2 3 4 6 7 8 9 12 12 16 16 15 17 16 16
4 3 3 1 1 1 0 0 0 0 0 -0 1 0 -0 -0 0 1 2 3 4 5 6 7 10 13 15 17 16 16 16 17
3 2 3 1 1 0 -1 -1 -1 -1 -1 -1 -1 -1 -2 -1 -1 1 2 3 4 5 6 7 8 11 14 16 16 15 16 15
2 2 2 1 0 -0 -1 -1 -2 -2 -2 -2 -2 -2 -2 -2 -1 -0 1 1 2 4 5 7 8 10 13 14 15 16 17 17
1 1 1 0 -1 -1 -2 -2 -2 -2 -3 -3 -3 -3 -2 -2 -2 -2 -1 -0 1 3 6 7 9 11 13 14 14 16 16 17

GFSFLT2_925_temp_153.txt.gz
Temp
14 14 14 16 17 18 19 18 18 17 18 18 19 19 20 20 20 19 20 20 20 20 19 19 19 19 19 19 19 20 20 23
13 14 13 14 15 17 19 18 18 18 17 18 18 19 19 19 20 20 20 19 20 20 19 19 19 19 19 19 19 19 19 22
14 14 13 13 15 14 15 15 16 17 16 16 17 18 18 19 19 19 19 19 19 19 19 19 19 19 19 18 18 19 21 22
14 13 12 13 15 14 15 15 15 15 14 14 15 15 17 17 18 19 19 19 20 19 19 19 18 19 20 20 18 20 22 23
14 13 12 12 12 14 14 14 14 14 14 13 14 14 16 17 18 19 18 19 19 20 19 18 18 19 21 23 21 20 22 24
13 12 11 11 11 13 13 13 13 14 12 13 13 14 14 15 17 18 18 18 18 18 19 19 19 19 21 22 23 23 23 24
12 12 11 11 11 11 11 12 12 11 12 12 12 12 13 13 14 15 16 18 17 17 18 19 19 19 20 22 23 23 23 24
11 11 10 10 10 10 10 11 11 11 12 12 11 10 11 12 13 14 15 17 18 17 16 17 18 19 20 20 21 22 23 23
11 10 10 9 10 10 10 11 10 10 11 11 10 10 10 10 11 12 14 15 15 17 16 16 17 17 18 19 20 20 22 23
11 10 9 9 9 9 10 10 9 10 10 10 10 10 9 9 10 11 11 11 12 15 16 17 15 16 17 18 19 19 21 22
10 9 9 8 8 9 9 9 9 9 9 9 9 8 8 7 6 7 8 8 11 13 15 16 16 15 16 17 18 18 20 21
10 9 8 7 8 9 9 9 8 8 8 8 7 7 6 5 5 5 6 6 9 12 14 15 16 16 14 15 16 18 19 21
9 9 8 8 8 7 7 7 7 7 7 7 6 6 4 3 4 4 5 6 7 8 8 12 15 16 16 16 16 16 18 19
9 8 7 7 6 6 6 6 6 6 7 5 5 5 4 3 3 3 4 4 5 6 7 8 11 15 17 16 17 17 17 18
8 7 7 6 4 5 5 6 6 6 4 4 3 3 3 2 1 1 2 3 4 5 7 8 9 10 14 16 18 18 18 18
7 7 6 5 4 4 3 4 4 3 3 2 2 2 1 0 -0 0 1 1 3 4 5 6 9 10 11 14 15 17 18 19
7 7 6 5 4 3 3 2 2 2 1 0 1 0 0 -0 -1 -1 -0 1 2 3 4 5 6 8 11 13 15 16 17 15
7 6 6 4 3 3 2 1 1 0 -0 -0 -1 -1 -1 -1 -1 -2 -1 -0 1 2 3 4 6 8 8 11 14 17 18 17
6 6 6 4 3 2 1 1 1 -0 -1 -1 -1 -2 -2 -2 -2 -2 -2 -1 -0 1 2 4 5 6 8 10 12 14 16 17
5 4 4 4 2 1 0 -0 -0 -1 -1 -2 -2 -2 -3 -3 -3 -3 -3 -2 -1 0 1 2 4 5 8 9 11 13 15 15

GFSFLT2_925_temp_159.txt.gz
Temp
15 16 16 16 16 17 17 18 17 18 18 19 18 18 18 18 18 19 19 19 19 19 19 19 19 19 19 19 19 20 20 20
15 16 16 16 16 16 16 15 16 16 16 17 19 19 19 19 18 18 18 19 19 19 19 19 19 19 19 19 19 19 20 20
14 14 15 15 15 15 15 15 15 15 16 16 17 17 16 17 17 18 18 18 18 19 19 19 19 19 19 19 19 19 20 20
13 13 14 14 14 14 14 14 14 14 14 14 14 14 14 15 16 16 17 17 17 17 18 18 18 18 19 19 19 19 19 20
12 12 12 13 12 13 13 13 13 13 13 12 12 12 12 13 13 14 14 15 16 16 17 17 17 17 18 19 19 19 19 20
12 12 11 12 11 12 12 12 12 12 12 12 11 11 11 10 10 11 11 12 13 14 15 15 16 17 17 18 18 19 19 20
12 11 11 11 10 11 11 11 11 11 11 11 11 10 10 9 9 9 9 10 9 10 12 13 14 15 16 16 17 17 18 19
12 11 10 10 10 10 10 10 10 10 10 10 10 9 9 9 8 8 7 8 8 8 9 10 12 13 14 16 17 17 18 19
11 10 9 9 9 9 10 10 10 9 9 9 9 8 7 7 6 6 6 6 6 7 7 8 9 11 13 14 15 16 17 18
10 9 9 9 9 9 9 9 8 8 8 8 7 7 6 5 5 4 4 4 5 5 5 6 7 8 9 11 13 14 16 17
9 9 8 8 8 8 8 7 7 7 7 6 5 5 4 4 4 3 4 3 4 5 5 6 6 6 7 9 10 12 15 15
9 8 7 7 7 6 6 6 6 6 5 4 3 3 2 2 2 2 2 2 2 3 3 4 5 6 7 8 9 11 14 14
8 7 6 6 6 5 5 5 4 4 3 2 2 1 1 1 0 0 0 0 1 1 2 3 5 6 6 8 9 10 12 14
8 7 6 5 4 4 4 4 3 2 1 1 0 0 0 -0 -0 -1 -1 -0 0 1 1 2 3 5 6 7 9 12 14 15
7 6 5 4 4 3 3 2 2 1 0 0 -0 -1 -1 -1 -1 -2 -2 -1 -1 0 1 2 3 4 5 7 9 10 10 14
7 6 5 4 3 2 2 1 1 0 -0 -1 -1 -1 -2 -2 -2 -2 -2 -2 -2 -1 -0 0 1 3 4 6 7 7 9 11
7 6 5 3 2 1 1 1 0 -1 -1 -2 -2 -2 -2 -3 -3 -3 -3 -3 -2 -2 -1 0 1 2 3 4 6 7 8 9
7 5 4 3 2 1 -0 -1 -1 -1 -2 -2 -3 -2 -3 -3 -3 -4 -4 -4 -3 -3 -2 -1 -1 0 1 3 5 6 8 8
5 4 3 2 1 0 -1 -1 -2 -2 -2 -3 -3 -3 -3 -4 -4 -4 -4 -4 -4 -3 -3 -3 -2 -2 -1 0 2 3 5 7
4 3 2 2 1 -0 -1 -1 -2 -2 -3 -4 -4 -4 -4 -4 -5 -5 -4 -5 -4 -4 -4 -4 -4 -3 -3 -2 -1 0 2 3

GFSFLT2_925_temp_162.txt.gz
Temp
15 15 16 15 16 16 16 16 17 18 17 18 18 18 18 17 17 17 18 18 18 18 18 19 19 19 19 19 19 19 19 20
15 15 15 15 15 15 15 15 15 16 16 17 18 18 18 18 17 17 17 17 17 17 17 17 18 18 18 18 19 19 19 19
14 14 14 14 14 14 14 14 14 15 16 16 17 16 17 16 16 16 16 17 17 17 17 17 17 17 18 18 18 18 19 19
13 13 13 13 13 13 13 13 13 13 13 13 13 14 14 14 15 15 15 16 16 16 16 16 17 17 17 17 17 18 19 19
12 12 12 12 13 13 12 12 12 12 11 11 11 11 12 13 13 13 13 13 14 14 15 15 15 15 15 16 17 17 17 18
12 11 11 11 11 11 11 11 11 11 10 11 10 10 10 10 10 10 10 9 10 10 11 12 13 14 14 15 15 16 17 17
11 11 11 10 10 10 10 10 10 10 10 9 9 9 8 8 8 8 7 7 7 8 8 10 11 12 13 13 15 15 16 16
10 10 10 10 9 9 9 9 9 9 8 8 8 7 7 7 6 6 6 6 6 6 6 6 7 8 10 11 13 14 14 15
10 9 9 9 9 8 8 8 8 7 7 7 6 6 5 5 5 4 4 4 4 4 5 5 6 6 7 8 10 12 13 13
9 9 8 8 7 7 7 7 7 6 6 5 4 4 4 4 3 2 3 3 3 3 3 4 4 5 5 6 8 9 11 12
8 8 7 7 7 7 6 6 5 4 4 3 2 2 2 2 1 1 1 1 1 2 2 3 4 4 5 6 6 7 9 11
8 7 6 6 6 5 5 4 3 2 1 1 0 0 0 0 0 -0 0 0 0 0 1 2 3 3 4 5 6 7 8 10
7 6 5 5 5 4 3 2 2 1 0 -0 -1 -1 -1 -1 -1 -1 -1 -1 -1 -0 1 1 2 3 4 5 6 8 9 10
6 6 5 4 4 3 2 2 1 0 -0 -1 -1 -1 -2 -2 -2 -2 -2 -2 -1 -1 -0 1 2 2 4 5 6 9 9 10
6 5 4 3 3 3 3 2 1 -0 -1 -1 -2 -2 -2 -2 -3 -3 -3 -3 -2 -2 -1 -0 1 1 2 4 7 8 7 10
5 4 3 3 3 2 1 -0 -1 -1 -1 -2 -2 -2 -3 -3 -3 -4 -3 -3 -3 -2 -1 -1 0 1 2 3 4 4 7 7
5 4 3 2 2 1 0 -1 -1 -1 -2 -2 -3 -3 -3 -3 -4 -4 -4 -4 -3 -3 -3 -2 -1 -1 0 1 3 4 5 6
4 3 2 2 1 0 -0 -1 -2 -2 -3 -3 -3 -4 -4 -4 -4 -4 -4 -4 -4 -4 -4 -3 -3 -2 -1 -1 1 3 4 5
3 2 1 1 0 -1 -1 -2 -2 -2 -3 -4 -4 -4 -5 -4 -5 -5 -5 -5 -4 -4 -4 -4 -4 -4 -3 -3 -2 -0 1 2
3 2 0 0 -0 -1 -1 -1 -2 -3 -3 -4 -4 -5 -5 -5 -5 -5 -5 -5 -6 -5 -6 -5 -5 -4 -4 -4 -3 -2 -2 -0

GFSFLT2_925_temp_168.txt.gz
Temp
14 15 14 14 14 14 14 15 16 17 17 17 17 17 17 17 16 16 15 16 16 16 16 16 17 16 17 17 17 18 18 18
14 14 14 14 14 14 14 14 14 14 15 15 15 16 16 15 16 15 15 16 15 16 16 16 16 16 17 17 17 17 17 18
13 13 14 14 14 13 13 13 13 14 14 13 14 14 14 14 13 13 13 14 15 15 15 15 16 16 16 17 16 17 17 17
12 13 13 13 13 12 12 12 12 12 12 12 12 12 12 12 12 12 12 12 13 14 15 15 15 15 15 16 15 15 16 16
12 12 12 12 12 11 12 12 11 11 11 11 10 11 11 11 10 11 11 11 11 12 13 14 13 13 14 14 14 14 15 15
11 11 12 11 11 11 11 11 10 10 10 10 10 9 9 8 9 8 8 9 9 9 9 9 11 12 11 12 12 12 13 13
10 11 11 10 11 10 10 9 9 8 9 8 8 8 7 7 6 5 5 5 5 5 6 6 6 8 9 10 10 10 11 12
9 10 9 9 9 9 8 8 7 8 7 7 7 6 5 5 5 4 4 3 3 3 3 3 4 4 5 6 8 9 9 10
9 9 8 9 8 8 7 6 6 6 6 6 5 5 4 4 4 3 3 3 2 2 1 1 1 2 3 3 4 6 8 9
8 8 8 7 7 7 6 6 6 5 5 4 4 4 3 3 2 2 1 1 1 -0 0 1 1 1 2 2 3 4 6 8
8 7 7 7 6 6 5 5 5 4 4 4 3 3 3 2 1 1 1 0 -1 -1 -1 0 0 1 2 3 3 5 6 6
7 6 5 5 5 5 4 4 3 3 2 2 2 1 1 1 1 0 -1 -1 -2 -2 -1 -1 0 1 1 2 3 5 5 6
6 6 5 5 5 4 4 2 2 2 1 1 1 1 0 -0 -0 -1 -2 -3 -3 -2 -2 -1 -0 0 2 2 5 7 6 7
5 5 5 5 4 3 3 2 1 0 0 -0 -0 0 -0 -1 -1 -2 -4 -3 -3 -3 -3 -2 -1 -1 0 1 5 6 6 6
5 4 4 4 3 3 2 2 1 1 0 -0 -1 -1 -1 -1 -1 -2 -3 -3 -4 -4 -4 -3 -2 -2 -1 1 3 4 3 7
4 3 4 3 3 3 3 1 -0 -2 -1 -1 -1 -1 -1 -1 -2 -2 -3 -4 -4 -4 -4 -4 -3 -2 -2 -1 -1 -1 3 5
3 3 3 2 2 2 2 1 -1 -1 -1 -1 -2 -2 -2 -2 -3 -3 -3 -4 -5 -5 -5 -5 -5 -4 -3 -3 -2 -1 1 2
2 2 1 1 1 1 1 0 -1 -1 -2 -2 -3 -3 -3 -3 -4 -4 -4 -4 -4 -5 -5 -6 -6 -5 -5 -4 -3 -2 -1 -0
1 1 0 0 1 0 -0 -1 -1 -2 -2 -3 -3 -4 -4 -4 -4 -4 -4 -4 -4 -4 -5 -6 -6 -6 -6 -5 -4 -4 -3 -2
1 1 -0 -0 -0 -1 -1 -1 -1 -2 -3 -3 -4 -4 -5 -5 -4 -4 -4 -4 -4 -5 -5 -6 -6 -7 -6 -6 -5 -5 -5 -4